Weather History for LTBA - January, 2012

Change the Weather History Date:

Wednesday, January 25, 2012

  Actual Average Record
Temperature  
Mean Temperature 48 °F -  
Max Temperature 52 °F 47 °F 62 °F (2014)
Min Temperature 43 °F 37 °F 28 °F (2000)
Degree Days  
Heating Degree Days 18    
Moisture  
Dew Point 42 °F    
Average Humidity 80    
Maximum Humidity 97    
Minimum Humidity 51    
Precipitation  
Precipitation 0.08 in - - ()
Sea Level Pressure  
Sea Level Pressure 29.63 in    
Wind  
Wind Speed 6 mph ()    
Max Wind Speed 9 mph    
Max Gust Speed -    
Visibility 5.8 miles    
Events Rain    
Averages and records for this station are not official NWS values.
T = Trace of Precipitation, MM = Missing Value Source: Averaged Metar Reports

Daily Weather History Graph

Daily Weather History Graph

Search for Another Location

Airport or City:

Trip Planner

Search our weather history database for the weather conditions in past years. The results will help you decide how hot, cold, wet, or windy it might be!

Date:

Astronomy

Jan. 25, 2012 Rise Set
Actual Time 7:22 AM EET 5:12 PM EET
Civil Twilight 6:52 AM EET 5:41 PM EET
Nautical Twilight 6:19 AM EET 6:15 PM EET
Astronomical Twilight 5:46 AM EET 6:47 PM EET
Moon 8:10 AM EET 7:46 PM EET
Length of Visible Light 10h 49m
Length of Day
9h 50m
Waxing Crescent, 5% of the Moon is Illuminated
Jan 25
Waxing Crescent
Jan 31
First Quarter
Feb 7
Full
Feb 14
Last Quarter
Feb 22
New

Hourly Weather History & Observations

Time (EET) Temp. Windchill Dew Point Humidity Pressure Visibility Wind Dir Wind Speed Gust Speed Precip Events Conditions
12:20 AM 44.6 °F 40.2 °F 41.0 °F 87% 29.77 in 6.2 mi East 8.1 mph - N/A   Mostly Cloudy
12:50 AM 44.6 °F 40.2 °F 42.8 °F 93% 29.77 in 6.2 mi East 8.1 mph - N/A   Mostly Cloudy
1:20 AM 44.6 °F 40.2 °F 42.8 °F 93% 29.74 in 4.3 mi ESE 8.1 mph - N/A Rain Light Rain Showers
1:50 AM 44.6 °F 40.7 °F 42.8 °F 93% 29.74 in 3.7 mi East 6.9 mph - N/A Rain Light Rain Showers
2:00 AM 44 °F - 44 °F 97% 29.76 in 4 mi East 6.9 mph - - Rain Light Rain Showers
2:20 AM 44.6 °F 40.7 °F 42.8 °F 93% 29.74 in 6.2 mi East 6.9 mph - N/A   Mostly Cloudy
2:50 AM 44.6 °F 42.2 °F 42.8 °F 93% 29.74 in 6.2 mi ENE 4.6 mph - N/A   Mostly Cloudy
3:20 AM 44.6 °F 42.2 °F 42.8 °F 93% 29.71 in 6.2 mi East 4.6 mph - N/A   Mostly Cloudy
3:50 AM 44.6 °F 42.2 °F 42.8 °F 93% 29.71 in 6.2 mi East 4.6 mph - N/A   Mostly Cloudy
4:20 AM 44.6 °F 42.2 °F 42.8 °F 93% 29.68 in 6.2 mi East 4.6 mph - N/A   Mostly Cloudy
4:50 AM 46.4 °F 43.5 °F 41.0 °F 81% 29.68 in 6.2 mi East 5.8 mph - N/A   Mostly Cloudy
5:20 AM 46.4 °F 44.3 °F 41.0 °F 81% 29.68 in 6.2 mi East 4.6 mph - N/A   Mostly Cloudy
5:50 AM 46.4 °F 44.3 °F 41.0 °F 81% 29.68 in 6.2 mi East 4.6 mph - N/A   Mostly Cloudy
6:20 AM 46.4 °F 42.9 °F 41.0 °F 81% 29.65 in 6.2 mi East 6.9 mph - N/A   Mostly Cloudy
6:50 AM 46.4 °F 42.9 °F 42.8 °F 87% 29.65 in 6.2 mi East 6.9 mph - N/A   Mostly Cloudy
7:20 AM 46.4 °F 42.4 °F 42.8 °F 87% 29.65 in 6.2 mi East 8.1 mph - N/A   Mostly Cloudy
7:50 AM 46.4 °F 41.9 °F 42.8 °F 87% 29.65 in 6.2 mi East 9.2 mph - N/A   Mostly Cloudy
8:00 AM 47 °F - 42 °F 79% 29.67 in 6 mi East 9.2 mph - -   Partly Cloudy
8:20 AM 48.2 °F - 41.0 °F 76% 29.65 in 6.2 mi ESE 9.2 mph - N/A   Mostly Cloudy
8:50 AM 48.2 °F - 41.0 °F 76% 29.65 in 6.2 mi ESE 8.1 mph - N/A   Mostly Cloudy
9:20 AM 48.2 °F - 41.0 °F 76% 29.65 in 6.2 mi East 6.9 mph - N/A   Mostly Cloudy
9:50 AM 48.2 °F - 42.8 °F 82% 29.62 in 6.2 mi East 4.6 mph - N/A   Mostly Cloudy
10:20 AM 48.2 °F - 42.8 °F 82% 29.62 in 6.2 mi East 8.1 mph - N/A   Mostly Cloudy
10:50 AM 50.0 °F - 41.0 °F 71% 29.62 in 6.2 mi East 8.1 mph - N/A   Mostly Cloudy
11:20 AM 51.8 °F - 41.0 °F 67% 29.62 in 6.2 mi ESE 8.1 mph - N/A   Mostly Cloudy
11:50 AM 51.8 °F - 41.0 °F 67% 29.59 in 6.2 mi ESE 6.9 mph - N/A   Mostly Cloudy
12:20 PM 51.8 °F - 39.2 °F 62% 29.59 in 6.2 mi ESE 6.9 mph - N/A   Mostly Cloudy
12:50 PM 51.8 °F - 39.2 °F 62% 29.59 in 6.2 mi ESE 6.9 mph - N/A   Mostly Cloudy
1:20 PM 51.8 °F - 39.2 °F 62% 29.59 in 6.2 mi East 5.8 mph - N/A   Mostly Cloudy
1:50 PM 51.8 °F - 39.2 °F 62% 29.59 in 6.2 mi East 5.8 mph - N/A   Mostly Cloudy
2:00 PM 52 °F - 39 °F 51% 29.60 in 6 mi East 5.8 mph - -   Partly Cloudy
2:20 PM 51.8 °F - 41.0 °F 67% 29.56 in 6.2 mi East 6.9 mph - N/A   Mostly Cloudy
2:50 PM 50.0 °F - 41.0 °F 71% 29.59 in 6.2 mi East 5.8 mph - N/A Rain Light Rain Showers
3:20 PM 51.8 °F - 44.6 °F 76% 29.59 in 6.2 mi ESE 6.9 mph - N/A Rain Light Rain Showers
3:50 PM 50.0 °F - 42.8 °F 76% 29.59 in 3.7 mi ESE 4.6 mph - N/A Rain Light Rain Showers
4:20 PM 48.2 °F - 42.8 °F 82% 29.59 in 3.7 mi Variable 2.3 mph - N/A Rain Light Rain Showers
4:50 PM 48.2 °F - 42.8 °F 82% 29.59 in 3.7 mi East 4.6 mph - N/A Rain Light Rain Showers
5:20 PM 50.0 °F - 44.6 °F 82% 29.59 in 3.7 mi ESE 6.9 mph - N/A Rain Light Rain Showers
5:50 PM 50.0 °F - 42.8 °F 76% 29.59 in 5.0 mi SE 6.9 mph - N/A Rain Light Rain Showers
6:20 PM 48.2 °F - 42.8 °F 82% 29.59 in 5.0 mi ESE 5.8 mph - N/A Rain Light Rain Showers
6:50 PM 48.2 °F - 44.6 °F 87% 29.59 in 6.2 mi East 6.9 mph - N/A Rain Light Rain Showers
7:20 PM 50.0 °F - 46.4 °F 87% 29.59 in 6.2 mi East 5.8 mph - N/A   Mostly Cloudy
7:50 PM 48.2 °F - 42.8 °F 82% 29.59 in 6.2 mi East 8.1 mph - N/A   Mostly Cloudy
8:00 PM 49 °F - 44 °F 76% 29.60 in 6 mi East 8.1 mph - -   Partly Cloudy
8:20 PM 48.2 °F - 42.8 °F 82% 29.59 in 6.2 mi ESE 9.2 mph - N/A   Mostly Cloudy
8:50 PM 48.2 °F - 42.8 °F 82% 29.59 in 6.2 mi East 8.1 mph - N/A   Mostly Cloudy
9:20 PM 48.2 °F - 42.8 °F 82% 29.59 in 6.2 mi East 5.8 mph - N/A   Mostly Cloudy
9:50 PM 48.2 °F - 42.8 °F 82% 29.59 in 6.2 mi East 6.9 mph - N/A   Mostly Cloudy
10:20 PM 48.2 °F - 42.8 °F 82% 29.56 in 6.2 mi East 6.9 mph - N/A   Mostly Cloudy
10:50 PM 48.2 °F - 41.0 °F 76% 29.59 in 6.2 mi East 5.8 mph - N/A   Mostly Cloudy
11:20 PM 48.2 °F - 42.8 °F 82% 29.59 in 6.2 mi East 5.8 mph - N/A Rain Light Rain Showers
11:50 PM 50.0 °F - 42.8 °F 76% 29.56 in 6.2 mi East 6.9 mph - N/A Rain Light Rain Showers